Location: Llanybyther
(52.0667°N, 4.1667°W)
Time: 04:10:04
(UTC+00:00)

Daily predictions for brighter satellites

Satellite Brightness Start Highest point End
(mag) Time Altitude Azimuth Time Altitude Azimuth Time Altitude Azimuth
Cosmos 1025 Rocket 3.2 00:02:03 10° N 00:06:19 61° ENE 00:06:21 61° E
Cosmos 1464 Rocket 3.9 00:05:12 52° S 00:06:53 89° ESE 00:13:06 10° N
USA 267 3.6 00:01:57 10° ENE 00:08:27 66° NNW 00:14:55 10° W
Okean 2 4.4 00:05:34 10° NNW 00:09:13 37° W 00:09:13 37° W
SJ 16-02 3.4 00:09:53 17° E 00:09:53 17° E 00:12:20 10° NE
Cosmos 1538 Rocket 3.8 00:05:09 10° NNW 00:10:22 88° WSW 00:11:04 67° SSE
Okean 2 Rocket 3.4 00:10:41 55° E 00:10:41 55° E 00:15:06 10° NNE
SL-16 R/B 2.6 00:05:57 10° NNW 00:11:36 59° NE 00:13:47 36° ESE
Nadezhda 4 Rocket 3.9 00:07:46 10° N 00:14:05 87° W 00:15:44 53° S
Cosmos 1975 3.4 00:15:44 49° WNW 00:15:44 49° WNW 00:19:42 10° N
NOSS 0 Rocket 4.4 00:13:22 10° NW 00:19:14 43° WSW 00:20:10 41° SW
Cosmos 2297 Rocket 2.2 00:28:55 57° SSE 00:29:41 63° ESE 00:35:17 10° NE
Cosmos 2344 4.3 00:21:15 10° NW 00:30:28 72° SW 00:38:10 27° SSE
Sich 1 Rocket 3.6 00:30:37 65° W 00:30:45 65° WNW 00:35:08 10° N
Cosmos 1980 4.1 00:27:33 10° NW 00:32:55 44° WSW 00:33:21 43° WSW
ALOS 2 4.0 00:33:27 27° W 00:33:27 27° W 00:37:06 10° NW
COSMOS 2428 4.3 00:29:15 10° NW 00:33:24 21° W 00:33:49 21° WSW
Cosmos 1092 Rocket 3.9 00:28:35 10° N 00:34:51 86° E 00:36:34 51° SSE
In-Cosmos 22 4.0 00:29:52 10° NNW 00:35:27 82° W 00:36:23 62° S
YAOGAN 11 4.2 00:35:46 68° WSW 00:35:52 68° WSW 00:40:27 10° NNW
DNEPR-1 R/B 4.3 00:33:18 10° NW 00:38:57 50° WSW 00:38:57 50° WSW
Cosmos 2034 Rocket 4.0 00:37:47 49° SSW 00:39:36 76° WNW 00:46:00 10° N
Cosmos 2237 Rocket 2.7 00:35:37 10° NW 00:40:54 41° WSW 00:41:12 40° WSW
Cosmos 2219 3.1 00:41:47 59° SSW 00:42:55 86° ESE 00:48:35 10° NNE
Cosmos 2151 Rocket 3.4 00:43:30 82° ESE 00:43:33 82° E 00:47:58 10° NNE
Helios 1A 3.6 00:45:29 44° W 00:45:29 44° W 00:49:12 10° NNW
Meteor 1-24 Rocket 4.4 00:41:48 10° N 00:46:59 44° ENE 00:49:07 30° ESE
Cosmos 1536 Rocket 3.6 00:45:36 10° NNW 00:49:46 64° W 00:49:46 64° W
Cosmos 1680 Rocket 3.6 00:44:52 10° NNW 00:50:07 74° ENE 00:51:28 50° SE
Lacrosse 4 Rocket 3.9 00:47:13 10° WNW 00:50:15 19° NNW 00:53:15 10° NNE
Cosmos 1674 3.0 00:46:35 10° N 00:49:53 64° NNE 00:49:53 64° NNE
CZ-4 R/B 3.9 00:45:36 10° NNE 00:50:37 69° ESE 00:51:18 61° SSE
Cosmos 2333 Rocket 4.3 00:48:45 10° WNW 00:51:02 12° W 00:51:29 12° W
Cosmos 1461 3.8 00:55:29 41° ESE 00:55:29 41° ESE 00:59:22 10° NE
Cosmos 1777 Rocket 4.1 00:56:11 52° WSW 00:57:21 70° WNW 01:02:41 10° NNE
TIMED 4.4 00:53:00 10° NNW 00:57:25 83° ENE 00:57:37 79° ESE
ATLAS 3B R/B 4.0 00:54:43 10° W 01:00:48 37° NNW 01:07:00 10° NE
Iridium 51 4.4 00:58:35 10° N 01:02:17 69° NW 01:02:17 69° NW
PSLV R/B 3.7 01:00:52 10° NNE 01:05:36 81° WNW 01:06:13 67° SW
CZ-2D R/B 3.6 01:01:20 10° NE 01:06:00 27° E 01:08:00 22° SE
Cosmos 1707 4.5 01:07:07 10° NW 01:09:41 23° WNW 01:09:41 23° WNW
Cosmos 1943 4.2 01:05:16 10° NNW 01:10:41 45° NE 01:16:04 10° ESE
Cosmos 1766 3.6 01:11:18 54° E 01:11:18 54° E 01:14:58 10° NNE
SL-16 R/B 3.0 01:09:25 24° SE 01:13:12 58° ENE 01:19:20 10° N
Cosmos 1607 4.3 01:07:30 10° NW 01:13:38 47° WSW 01:14:32 44° SW
Cosmos 1733 3.7 01:14:34 50° E 01:14:34 50° E 01:18:14 10° NNE
Cosmos 1626 2.5 01:11:38 10° N 01:15:17 58° ENE 01:15:17 58° ENE
Cosmos 1655 Rocket 4.3 01:09:11 10° N 01:15:24 61° ENE 01:18:27 30° SE
Uosat 12 SS-18 rocket 4.5 01:16:49 45° W 01:17:58 61° NW 01:22:19 10° NE
Cosmos 2227 Rocket 2.3 01:18:31 46° SW 01:20:15 72° WNW 01:25:56 10° NNE
Cosmos 923 Rocket 4.2 01:18:01 10° NNW 01:23:11 51° WSW 01:23:41 50° SW
Meteor 2-5 Rocket 3.6 01:17:57 10° NNW 01:23:35 81° W 01:25:04 51° S
Cosmos 1470 4.3 01:24:19 26° ESE 01:25:01 27° E 01:28:25 10° NNE
Helios 1B rocket 2.3 01:21:41 10° NNE 01:25:47 75° WNW 01:25:58 73° W
Landsat 4 4.4 01:22:41 10° N 01:26:17 44° WNW 01:26:17 44° WNW
Meteor 1-22 Rocket 4.4 01:25:04 41° SSE 01:26:35 57° E 01:31:52 10° NNE
Cosmos 2026 Rocket 4.2 01:21:29 10° NNW 01:27:26 55° W 01:29:04 43° SW
CENTAUR R/B 4.5 01:25:15 10° WNW 01:31:42 35° N 01:39:05 10° ENE
Cosmos 2279 Rocket 3.9 01:29:43 43° S 01:31:54 82° E 01:38:10 10° NNE
Cosmos 1805 3.2 01:32:08 75° WNW 01:32:08 75° WNW 01:36:00 10° N
Resurs 1-4 Rocket 2.7 01:34:35 10° NNE 01:39:42 47° E 01:41:36 33° SSE
Cosmos 2180 Rocket 4.5 01:39:58 40° S 01:42:21 78° E 01:48:31 10° NNE
Cosmos 2098 Rocket 4.0 01:37:31 10° N 01:42:58 73° E 01:46:32 28° SSE
Cosmos 2082 3.7 01:44:36 43° SW 01:46:28 76° WNW 01:52:08 10° NNE
Okean 1 Rocket 3.4 01:46:41 47° W 01:47:14 51° WNW 01:51:32 10° N
SJ 16-02 1.4 01:46:52 57° WSW 01:47:35 69° WNW 01:52:00 10° NNE
Cosmos 1634 Rocket 4.3 01:45:25 37° SW 01:47:39 54° WNW 01:53:44 10° N
NOSS 3-1 (C) 3.4 01:48:09 43° SSW 01:49:59 68° SE 01:56:29 10° NE
USA 267 3.8 01:44:42 10° E 01:51:07 60° N 01:57:32 10° WNW
SL-14 R/B 3.3 01:48:44 10° NNW 01:52:33 60° W 01:52:33 60° W
Meteor 2-19 Rocket 4.4 01:46:51 10° NNW 01:53:01 74° W 01:55:33 37° S
SL-16 R/B 3.1 01:50:32 10° NW 01:55:25 30° WSW 01:55:38 30° WSW
Cosmos 2263 Rocket 2.9 01:56:40 30° SSE 01:58:49 43° ESE 02:04:03 10° NE
Cosmos 724 4.4 01:55:44 10° NW 02:01:33 53° WSW 02:03:52 35° S
MOZ.5/SAFIR/RUBIN 5/SL-8 4.0 02:00:53 47° SW 02:01:43 54° W 02:06:22 10° NNW
CZ-4C R/B 2.9 02:05:30 72° SW 02:05:40 75° WSW 02:09:23 10° NNW
Okean 1-7 Rocket 3.6 02:03:17 10° NNW 02:07:41 66° W 02:08:38 50° SSW
SL-19 R/B 4.3 02:01:52 10° NNE 02:07:42 71° WNW 02:09:58 37° SW
Cosmos 1937 Rocket 3.5 02:07:18 41° SSW 02:09:14 81° ESE 02:14:35 10° NNE
NOSS 2-3 (D) 4.1 02:08:30 40° SSE 02:09:35 50° SE 02:14:33 10° NE
COBE Rocket 3.9 02:08:33 28° SSE 02:11:00 73° ENE 02:15:39 10° N
Cosmos 1626 Rocket 3.7 02:06:44 10° N 02:11:04 68° ENE 02:13:03 31° SSE
ADEOS II 3.2 02:06:21 10° NNE 02:11:15 38° E 02:14:31 19° SSE
Cosmos 990 Rocket 4.0 02:09:50 40° SW 02:11:39 71° WNW 02:16:50 10° NNE
Cosmos 1455 Rocket 3.0 02:12:38 48° SSW 02:13:52 84° W 02:18:22 10° N
Cosmos 2297 Rocket 3.5 02:10:42 18° W 02:14:08 32° NW 02:19:14 10° NNE
CZ-4B R/B 4.1 02:09:44 10° NNE 02:14:20 46° E 02:16:40 26° SSE
ATLAS CENTAUR R/B 3.1 02:13:46 19° SE 02:14:44 20° ESE 02:17:40 10° ENE
Cosmos 1726 3.0 02:14:19 31° SE 02:15:27 41° E 02:18:55 10° NNE
UNK 3.9 02:17:20 42° SSW 02:18:29 53° W 02:23:06 10° NNW
Cosmos 2266 Rocket 4.0 02:13:28 10° NNW 02:19:45 67° W 02:22:57 30° SSW
Meteor 1-29 4.4 02:19:27 10° N 02:22:24 26° WNW 02:22:42 26° WNW
Cosmos 1892 Rocket 4.3 02:20:20 10° NNW 02:24:24 36° W 02:24:59 34° WSW
GEOS 3 Rocket 4.0 02:20:35 10° NE 02:25:56 58° SE 02:28:25 31° SSW
Cosmos 1898 Rocket 3.7 02:24:13 34° SW 02:26:22 60° WNW 02:31:32 10° NNE
Meteor 1-21 Rocket 4.2 02:21:51 10° NNW 02:27:27 84° ENE 02:31:40 18° SSE
Meteor 2-21 4.4 02:21:22 10° N 02:27:29 86° E 02:32:12 18° S
USA 229 DEB 3.6 02:24:11 30° SW 02:27:45 89° NW 02:34:47 10° NE
USA 229 3.6 02:24:18 30° SW 02:27:52 89° NNW 02:34:52 10° NE
CBERS-1 4.5 02:23:05 10° NNE 02:28:08 55° E 02:31:10 23° S
Meteor 1-24 Rocket 4.4 02:25:11 10° NNW 02:29:57 32° W 02:31:16 29° WSW
Meteor 2-10 4.4 02:27:12 25° S 02:30:30 68° E 02:36:13 10° NNE
ARIANE 5 R/B 4.0 02:26:54 10° NNE 02:31:35 32° E 02:36:11 10° SSE
Cosmos 1932 4.5 02:25:25 10° NW 02:31:51 64° SW 02:38:08 10° SSE
Cosmos 1758 Rocket 4.4 02:29:37 10° N 02:33:49 47° ENE 02:38:01 10° SSE
Cosmos 1461 4.0 02:31:50 23° W 02:34:11 41° NW 02:38:37 10° NE
Cosmos 1603 4.0 02:30:48 10° NW 02:36:17 47° WSW 02:39:05 27° S
NOSS 2-3 (C) 3.7 02:35:34 36° SW 02:37:23 80° SE 02:42:43 10° NE
NOSS 3-1 (A) 3.3 02:36:02 30° SW 02:39:01 84° SE 02:45:41 10° NE
Cosmos 494 Rocket 4.3 02:37:36 10° NNW 02:42:46 66° ENE 02:47:56 10° SE
MINOTAUR IV R/B 4.5 02:38:23 10° NNW 02:42:53 70° WSW 02:46:16 17° SSE
Cosmos 1340 Rocket 3.1 02:42:43 37° SW 02:43:52 51° WNW 02:47:44 10° N
Cosmos 2150 Rocket 4.4 02:42:28 23° S 02:45:37 56° ESE 02:50:48 10° NNE
Cosmos 1758 3.5 02:44:28 37° SW 02:45:44 54° WNW 02:49:40 10° N
CZ-2D R/B 2.4 02:41:00 10° N 02:46:24 58° WNW 02:49:18 27° SW
H-2A R/B 4.0 02:45:51 10° ESE 02:49:21 28° ENE 02:52:53 10° N
Cosmos 1703 3.5 02:45:29 10° N 02:49:28 70° ENE 02:52:42 15° SSE
Cosmos 1626 4.3 02:48:10 10° NW 02:49:48 14° WNW 02:49:48 14° WNW
Cosmos 1825 Rocket 4.1 02:48:08 10° N 02:52:26 57° ENE 02:56:41 10° SSE
ATLAS 3B R/B 4.4 02:47:22 10° NW 02:53:14 31° N 02:59:16 10° ENE
Cosmos 1943 3.6 02:49:29 10° NW 02:54:43 40° WSW 02:57:52 22° SSW
SL-16 R/B 3.3 02:54:31 24° SW 02:57:08 33° W 03:02:43 10° NNW
Nadezhda 2 Rocket 4.4 02:51:07 10° NNW 02:57:19 75° W 03:02:51 13° S
Cosmos 1125 Rocket 4.2 02:54:00 16° S 02:57:55 48° ESE 03:03:00 10° NE
USA 215 4.4 02:53:25 10° ENE 02:59:07 31° SE 03:03:50 14° S
IRS-1C 4.4 02:54:10 10° NNE 02:59:30 65° ESE 03:03:51 16° S
Cosmos 1470 3.8 02:59:40 26° WSW 03:01:00 32° WNW 03:04:37 10° N
Cosmos 1953 2.3 02:59:36 29° SSW 03:01:34 71° WNW 03:05:39 10° N
Cosmos 1544 Rocket 4.2 02:59:45 27° SW 03:01:41 42° WNW 03:05:57 10° N
IRS-1D 3.5 02:57:35 10° NNE 03:02:42 79° WNW 03:06:07 22° SSW
Cosmos 1328 3.8 02:59:17 10° N 03:03:19 83° ENE 03:07:02 12° SSE
Cosmos 1953 Rocket 4.4 02:59:27 10° N 03:03:53 52° ENE 03:08:14 10° SSE
Cosmos 2227 Rocket 4.1 03:01:02 10° W 03:05:20 21° NNW 03:09:37 10° NNE
NPP 4.1 03:00:09 10° N 03:05:20 49° WNW 03:08:34 22° SW
AQUA 4.3 03:06:01 10° N 03:10:35 46° WNW 03:13:19 22° SW
USA 238 DEB 4.5 03:11:03 10° NW 03:18:05 60° NE 03:25:25 10° ESE
USA 238 4.5 03:11:09 10° NW 03:18:11 60° NE 03:25:30 10° ESE
Cosmos 1602 Rocket 4.2 03:15:21 10° NNW 03:19:19 35° W 03:21:31 21° SW
Resurs 1-4 Rocket 3.1 03:14:43 10° N 03:19:23 33° WNW 03:22:40 17° WSW
Atlas Centaur 2 4.4 03:22:01 10° S 03:22:21 10° S 03:22:42 10° SSE
Cosmos 1606 Rocket 3.9 03:19:25 11° S 03:23:43 67° E 03:28:10 10° NNE
CENTAUR R/B 4.0 03:16:38 10° NW 03:24:03 53° NNE 03:32:27 10° ESE
SJ 16-02 3.7 03:24:48 10° WNW 03:27:03 14° NW 03:29:18 10° NNW
IDEFIX/ARIANE 42P 3.0 03:22:58 10° NNE 03:28:09 61° ESE 03:33:19 10° S
USA 267 3.3 03:27:24 10° ESE 03:33:58 89° NNE 03:40:33 10° WNW
Cosmos 1908 3.3 03:31:23 17° SSW 03:34:16 63° WNW 03:38:11 10° N
Cosmos 1726 Rocket 3.8 03:33:57 10° S 03:38:24 75° E 03:42:52 10° NNE
IRS-P3 4.3 03:33:07 10° N 03:38:25 63° WNW 03:43:08 13° SSW
Cosmos 2228 3.0 03:36:23 11° SSW 03:40:38 84° W 03:45:04 10° N
NOSS 3-1 (C) 4.4 03:35:37 10° W 03:41:15 44° NNW 03:47:54 10° NE
Cosmos 2298 Rocket 4.4 03:38:29 16° SW 03:42:42 54° WNW 03:47:58 10° NNE
Cosmos 2263 Rocket 2.9 03:38:22 14° WSW 03:42:47 43° NW 03:48:06 10° NNE
Cosmos 1844 4.5 03:38:13 10° S 03:43:47 51° ESE 03:49:21 10° NE
Meteor 1-28 Rocket 4.0 03:41:32 14° SSW 03:44:23 33° W 03:47:54 10° NNW
Cosmos 1386 Rocket 4.4 03:39:05 10° NNW 03:45:06 75° W 03:51:06 10° S
CZ-2C R/B 3.2 03:43:58 10° NNE 03:47:46 61° ESE 03:51:29 10° S
SL-08 R/B 4.0 03:44:41 10° SSW 03:49:15 36° W 03:53:48 10° NNW
Cosmos 1726 3.8 03:48:49 13° WSW 03:50:51 19° WNW 03:53:33 10° NNW
ADEOS II 2.8 03:46:06 10° N 03:50:59 40° WNW 03:55:27 12° SW
Cosmos 1356 Rocket 3.4 03:47:01 10° SSW 03:51:10 88° WNW 03:55:16 10° NNE
Spot 4 Rocket 4.1 03:47:18 10° NNE 03:52:31 86° WNW 03:57:40 10° SSW
CZ-4B R/B 4.5 03:48:47 10° N 03:52:52 29° WNW 03:56:36 12° WSW
ATLAS CENTAUR R/B 1.4 03:49:57 14° SW 03:53:18 65° NW 03:57:08 10° NE
Cosmos 1300 2.8 03:50:32 10° S 03:54:20 77° E 03:58:10 10° NNE
ERS-2 2.1 03:54:05 10° SSE 03:57:44 85° WSW 04:01:26 10° NNW
Cosmos 1269 Rocket 4.1 03:53:14 10° NNW 03:58:26 56° WSW 04:03:35 10° S
CZ-4C R/B 2.9 03:57:20 10° S 04:00:37 59° WSW 04:04:02 10° NNW
Cosmos 2285 Rocket 4.3 03:55:52 11° SW 04:01:42 54° WNW 04:07:54 10° NNE
GEOS 3 Rocket 4.4 03:58:45 10° NE 04:03:53 46° NNW 04:09:01 10° WSW
Cosmos 2278 Rocket 4.4 04:00:51 10° SSE 04:05:08 23° ESE 04:09:26 10° NE
Cosmos 1844 Rocket 2.7 03:59:54 10° SSW 04:05:28 85° ESE 04:11:05 10° NNE
Cosmos 2251 Rocket 4.3 04:00:19 10° NNW 04:05:39 60° ENE 04:10:58 10° SE
Cosmos 1553 Rocket 4.2 04:00:39 10° SSW 04:06:34 52° WNW 04:12:36 10° N
Cosmos 1833 Rocket 3.7 04:01:52 10° NNW 04:07:25 53° NE 04:12:56 10° SE
NOSS 3-2 (A) 4.1 04:01:36 10° NW 04:08:56 87° SW 04:17:18 10° SE
NOSS 2-2 (C) 3.9 04:06:10 10° SSW 04:09:38 47° SE 04:13:32 10° NE
Cosmos 2084 4.0 04:05:20 10° WSW 04:09:38 55° NW 04:14:02 10° NE
Lacrosse 5 rocket 4.1 04:08:21 10° SSE 04:10:39 14° ESE 04:12:59 10° E
ARIANE 5 R/B 3.0 04:05:51 10° N 04:10:52 47° WNW 04:15:51 10° SW
Lacrosse 4 Rocket 4.5 04:09:48 10° N 04:11:12 11° NNE 04:12:36 10° NE
Cosmos 1745 Rocket 4.3 04:08:07 10° NNW 04:14:04 46° W 04:19:55 10° SSW
SeaSat 1 4.0 04:09:43 10° NE 04:14:13 34° ESE 04:18:40 10° S
NOSS 8 (H) 4.1 04:11:27 10° SW 04:14:32 85° NW 04:17:38 10° NE
NOSS 3-2 (C) 4.2 04:11:45 10° NW 04:19:03 80° NE 04:27:23 10° SE
Cosmos 1867 3.6 04:16:42 10° NW 04:22:09 68° SW 04:27:33 10° SSE
Cosmos 2058 Rocket 3.2 04:20:42 10° SSW 04:25:07 61° WNW 04:29:31 10° N
H-2A R/B 2.5 04:21:28 10° SSW 04:25:15 36° W 04:29:05 10° NNW
CZ-2D R/B 4.2 04:22:43 10° NNW 04:25:24 14° NW 04:28:05 10° WNW
